Flag for U.S.A. Weather past 2 weeks in Greensboro, North Carolina, U.S.A.

Now
71 °F

Fog.


Feels Like: 65 °F
Forecast: 69 / 90 °F
Wind: 3 mph from East

Location: Piedmont Triad International Airport

Current Time: Aug 20, 2014 at 6:58:39 AM

Latest Report: Aug 20, 2014 at 5:54 AM


Visibility: 6 mi

Pressure: 29.91 "Hg

Humidity: 96%

Dew point: 70 °F

Location of GreensboroLocation

Historic Weather in Greensboro — Graph

°F

Greensboro temperature yesterday

Maximum temperature yesterday: 86 °F (at 3:54 PM)
Minimum temperature yesterday: 69 °F (at 4:54 AM)
Average temperature yesterday: 77 °F

Past Weeks' High & Low Weather Summary

 TemperatureHumidityPressure
High88 °F (Aug 6, 2:54 PM)100% (Aug 8, 6:00 AM)30.13 "Hg (Aug 8, 6:00 AM)
Low58 °F (Aug 14, 4:54 AM)40% (Aug 6, 1:54 PM)29.76 "Hg (Aug 12, 5:54 PM)
Average74 °F77%29.97 "Hg
* Reported Aug 5 5:54 AM — Aug 20 5:54 AM, Greensboro, Weather by CustomWeather, © 2014

Note: Actual official high and low records may vary slightly from our data, if they occured in-between our weather recording intervals... More about our weather records

Advertising

Greensboro weather history for previous 24 hours

 ConditionsComfort  
Time TempWeatherWind HumidityBarometerVisibility
5:54 AM
Aug 20
71 °FFog.3 mph96%29.91 "Hg6 mi
4:54 AM72 °FPartly cloudy.3 mph93%29.89 "Hg7 mi
3:54 AM72 °FPassing clouds.5 mph97%29.89 "Hg8 mi
2:54 AM73 °FPassing clouds.5 mph94%29.89 "Hg8 mi
1:54 AM73 °FPassing clouds.No wind94%29.88 "Hg8 mi
12:54 AM74 °FPassing clouds.No wind91%29.87 "Hg10 mi
11:54 PM
Aug 19
75 °FPartly cloudy.No wind88%29.89 "Hg10 mi
10:54 PM76 °FPassing clouds.No wind85%29.88 "Hg10 mi
9:54 PM76 °FPartly cloudy.3 mph85%29.87 "Hg10 mi
8:54 PM78 °FPartly sunny.3 mph79%29.87 "Hg10 mi
7:54 PM79 °FBroken clouds.No wind74%29.85 "Hg10 mi
6:54 PM82 °FBroken clouds.7 mph63%29.82 "Hg10 mi
5:54 PM82 °FBroken clouds.9 mph63%29.82 "Hg10 mi
4:54 PM86 °FBroken clouds.8 mph57%29.81 "Hg10 mi
3:54 PM86 °FBroken clouds.No wind57%29.80 "Hg10 mi
2:54 PM85 °FBroken clouds.No wind57%29.82 "Hg10 mi
1:54 PM83 °FBroken clouds.No wind63%29.84 "Hg10 mi
12:54 PM84 °FBroken clouds.5 mph63%29.85 "Hg10 mi
11:54 AM83 °FBroken clouds.6 mph65%29.85 "Hg10 mi
10:54 AM81 °FPartly sunny.6 mph72%29.85 "Hg10 mi
9:54 AM79 °FPartly sunny.5 mph74%29.85 "Hg10 mi
8:54 AM76 °FScattered clouds.5 mph82%29.84 "Hg10 mi
7:54 AM72 °FScattered clouds.5 mph87%29.83 "Hg10 mi
6:54 AM69 °FPartly cloudy.No wind93%29.83 "Hg10 mi
Weather by CustomWeather, © 2014

See weather overviewHow to use our weather pages